GW2624 Weather Reports


time (UTC)temp
C
wind
direction
speed
KPH
gust
KPH
rain 1hr
cm
rain 24hr
cm
rain mn
cm
humidity
%
barometer
mb
20260831101404 16 98 0.0 0.0 0.00 0.00 0.00 61 1008.1
20260831100405 17 98 0.0 0.0 0.00 0.00 0.00 61 1007.9
20260831095405 17 98 0.0 0.0 0.00 0.00 0.00 59 1007.8
20260831094905 17 98 0.0 0.0 0.00 0.00 0.00 59 1007.6
20260831091405 18 65 0.0 1.6 0.00 0.00 0.00 54 1007.5
20260831085405 18 50 1.6 4.8 0.00 0.00 0.00 53 1007.5
20260831084405 19 265 1.6 4.8 0.00 0.00 0.00 54 1007.6
20260831083905 19 301 0.0 1.6 0.00 0.00 0.00 53 1007.7
20260831082905 19 300 1.6 4.8 0.00 0.00 0.00 54 1007.7
20260831082404 19 28 0.0 4.8 0.00 0.00 0.00 53 1007.7
20260831080905 19 344 0.0 4.8 0.00 0.00 0.00 53 1007.7
20260831075905 19 48 3.2 4.8 0.00 0.00 0.00 53 1007.7
20260831075405 19 95 1.6 4.8 0.00 0.00 0.00 53 1007.8
20260831074905 19 15 1.6 4.8 0.00 0.00 0.00 53 1007.8
20260831074406 19 105 1.6 3.2 0.00 0.00 0.00 54 1007.8
20260831072904 18 121 1.6 3.2 0.00 0.00 0.00 54 1007.6
20260831072404 18 121 0.0 1.6 0.00 0.00 0.00 54 1007.7
20260831071405 18 113 0.0 1.6 0.00 0.00 0.00 53 1007.7
20260831070905 19 113 0.0 1.6 0.00 0.00 0.00 53 1007.7
20260831070405 19 113 0.0 1.6 0.00 0.00 0.00 53 1007.7
20260831065905 19 113 0.0 1.6 0.00 0.00 0.00 52 1007.8
20260831064905 19 59 0.0 4.8 0.00 0.00 0.00 51 1007.9
20260831064405 19 59 0.0 4.8 0.00 0.00 0.00 51 1007.8
20260831062405 18 328 1.6 4.8 0.00 0.00 0.00 54 1007.8
20260831061904 17 66 0.0 4.8 0.00 0.00 0.00 53 1007.8
20260831061404 17 304 3.2 4.8 0.00 0.00 0.00 55 1007.6
20260831060904 17 137 0.0 3.2 0.00 0.00 0.00 53 1007.0
20260831060405 17 137 0.0 1.6 0.00 0.00 0.00 53 1007.1
20260831055905 17 137 0.0 3.2 0.00 0.00 0.00 54 1007.0
20260831054904 18 137 1.6 4.8 0.00 0.00 0.00 54 1007.0
20260831053904 18 137 1.6 3.2 0.00 0.00 0.00 52 1007.0
20260831052905 18 137 0.0 1.6 0.00 0.00 0.00 51 1007.1
20260831052405 19 137 0.0 1.6 0.00 0.00 0.00 51 1007.1
20260831051904 19 137 0.0 1.6 0.00 0.00 0.00 50 1007.0
20260831051405 20 137 0.0 1.6 0.00 0.00 0.00 49 1007.0
20260831050404 20 137 0.0 3.2 0.00 0.00 0.00 48 1006.9
20260831045905 20 137 0.0 8.0 0.00 0.00 0.00 48 1006.8
20260831045405 20 145 0.0 8.0 0.00 0.00 0.00 48 1006.8
20260831044905 20 151 3.2 4.8 0.00 0.00 0.00 49 1006.8
20260831042905 20 134 0.0 0.0 0.00 0.00 0.00 49 1006.6
20260831041905 20 134 0.0 1.6 0.00 0.00 0.00 48 1006.7
20260831040405 20 134 1.6 4.8 0.00 0.00 0.00 48 1006.6
20260831035905 20 145 3.2 4.8 0.00 0.00 0.00 49 1006.7
20260831035405 21 146 1.6 3.2 0.00 0.00 0.00 48 1006.8
20260831034905 21 146 0.0 3.2 0.00 0.00 0.00 47 1006.6
20260831033904 21 146 0.0 3.2 0.00 0.00 0.00 46 1006.7
20260831031405 21 142 1.6 4.8 0.00 0.00 0.00 47 1006.2
20260831030405 21 142 0.0 4.8 0.00 0.00 0.00 47 1006.0
20260831025904 21 142 3.2 4.8 0.00 0.00 0.00 47 1006.0
20260831025405 21 143 3.2 4.8 0.00 0.00 0.00 48 1006.0
20260831023905 21 184 0.0 1.6 0.00 0.00 0.00 49 1005.7
20260831023405 21 184 0.0 1.6 0.00 0.00 0.00 48 1005.6
20260831022905 22 184 0.0 1.6 0.00 0.00 0.00 46 1005.6
20260831020905 23 184 0.0 0.0 0.00 0.00 0.00 41 1005.4
20260831015905 23 184 0.0 0.0 0.00 0.00 0.00 40 1005.1
20260831015404 24 184 0.0 0.0 0.00 0.00 0.00 40 1005.0
20260831013405 26 184 0.0 0.0 0.00 0.00 0.00 37 1004.8
20260831012904 26 184 0.0 0.0 0.00 0.00 0.00 36 1004.8
20260831012404 26 184 0.0 0.0 0.00 0.00 0.00 36 1004.7
20260831010905 27 184 0.0 1.6 0.00 0.00 0.00 33 1004.7
20260831010405 27 184 0.0 1.6 0.00 0.00 0.00 33 1004.6
20260831005404 27 184 0.0 4.8 0.00 0.00 0.00 32 1004.8
20260831003906 28 278 1.6 3.2 0.00 0.00 0.00 32 1004.8
20260831002905 28 319 0.0 4.8 0.00 0.00 0.00 32 1004.9
20260831001404 28 261 0.0 3.2 0.00 0.00 0.00 32 1005.0
20260831000905 28 261 1.6 3.2 0.00 0.00 0.00 30 1004.9
20260831000405 28 293 1.6 3.2 0.00 0.00 0.00 31 1004.9
20260830235404 28 121 0.0 3.2 0.00 0.00 0.00 32 1004.9
20260830233905 28 256 3.2 11.3 0.00 0.00 0.00 30 1004.8
20260830233405 28 212 3.2 11.3 0.00 0.00 0.00 32 1004.7
20260830230904 28 237 1.6 8.0 0.00 0.00 0.00 34 1004.8
20260830225905 28 282 1.6 12.9 0.00 0.00 0.00 34 1004.7
20260830225404 28 225 3.2 12.9 0.00 0.00 0.00 34 1004.8
20260830224905 28 272 3.2 4.8 0.00 0.00 0.00 34 1004.9
20260830224404 28 303 3.2 8.0 0.00 0.00 0.00 35 1005.0
20260830223404 27 283 1.6 9.7 0.00 0.00 0.00 36 1005.1
20260830214904 27 172 1.6 4.8 0.00 0.00 0.00 37 1005.3
20260830213405 27 328 1.6 8.0 0.00 0.00 0.00 39 1005.4
20260830212404 27 255 1.6 8.0 0.00 0.00 0.00 37 1005.4
20260830211904 27 194 3.2 8.0 0.00 0.00 0.00 38 1005.4
20260830210404 27 232 1.6 9.7 0.00 0.00 0.00 37 1005.6
20260830205905 27 183 1.6 9.7 0.00 0.00 0.00 37 1005.5
20260830205405 26 286 3.2 9.7 0.00 0.00 0.00 39 1005.6
20260830203904 26 183 6.4 14.5 0.00 0.00 0.00 39 1005.8
20260830202904 26 88 1.6 4.8 0.00 0.00 0.00 42 1005.9
20260830202404 26 20 3.2 4.8 0.00 0.00 0.00 43 1006.0
20260830201905 26 180 1.6 8.0 0.00 0.00 0.00 38 1006.1
20260830200404 26 224 4.8 9.7 0.00 0.00 0.00 39 1006.1
20260830195404 27 258 1.6 12.9 0.00 0.00 0.00 42 1006.3
20260830194905 27 223 3.2 16.1 0.00 0.00 0.00 40 1006.4
20260830193905 29 159 3.2 9.7 0.00 0.00 0.00 37 1006.5
20260830193405 29 219 3.2 9.7 0.00 0.00 0.00 32 1006.5
20260830192905 28 359 3.2 12.9 0.00 0.00 0.00 34 1006.5
20260830191904 29 192 3.2 19.3 0.00 0.00 0.00 33 1006.6
20260830191405 29 258 8.0 19.3 0.00 0.00 0.00 32 1006.6
20260830184905 28 25 4.8 11.3 0.00 0.00 0.00 32 1006.8
20260830184406 29 289 3.2 11.3 0.00 0.00 0.00 34 1007.0
20260830182405 28 328 3.2 8.0 0.00 0.00 0.00 36 1007.3
20260830181405 28 50 1.6 8.0 0.00 0.00 0.00 36 1007.3
20260830180405 27 302 4.8 11.3 0.00 0.00 0.00 37 1007.4
20260830175404 27 57 4.8 9.7 0.00 0.00 0.00 36 1007.5
20260830174904 27 167 1.6 9.7 0.00 0.00 0.00 39 1007.7
20260830172904 27 54 4.8 12.9 0.00 0.00 0.00 39 1008.0
20260830172404 27 256 1.6 11.3 0.00 0.00 0.00 41 1008.1
20260830171904 26 19 0.0 11.3 0.00 0.00 0.00 41 1008.2
20260830170905 26 310 3.2 11.3 0.00 0.00 0.00 44 1008.2
20260830165404 25 288 1.6 9.7 0.00 0.00 0.00 46 1008.3
20260830162905 24 267 1.6 4.8 0.00 0.00 0.00 53 1008.5
20260830161905 24 205 3.2 4.8 0.00 0.00 0.00 54 1008.3
20260830160905 23 306 1.6 4.8 0.00 0.00 0.00 54 1008.3
20260830154905 22 274 1.6 4.8 0.00 0.00 0.00 58 1008.3
20260830154404 22 301 1.6 8.0 0.00 0.00 0.00 58 1008.3
20260830153405 22 276 1.6 4.8 0.00 0.00 0.00 57 1008.1
20260830152905 21 216 3.2 9.7 0.00 0.00 0.00 58 1008.0
20260830152404 21 200 4.8 9.7 0.00 0.00 0.00 61 1007.9
20260830151906 21 243 1.6 4.8 0.00 0.00 0.00 64 1007.8
20260830150405 20 171 1.6 3.2 0.00 0.00 0.00 67 1008.0
20260830145904 20 156 1.6 3.2 0.00 0.00 0.00 69 1008.1
20260830144905 19 140 3.2 4.8 0.00 0.00 0.00 71 1008.2
20260830144405 18 202 0.0 1.6 0.00 0.00 0.00 72 1008.2
20260830143905 18 205 0.0 1.6 0.00 0.00 0.00 74 1008.2
20260830143405 18 205 0.0 1.6 0.00 0.00 0.00 74 1008.2
20260830142905 18 205 0.0 4.8 0.00 0.00 0.00 74 1008.2
20260830142404 18 205 0.0 4.8 0.00 0.00 0.00 75 1008.3
20260830141905 18 257 1.6 4.8 0.00 0.00 0.00 74 1008.4
20260830140404 17 234 1.6 4.8 0.00 0.00 0.00 76 1008.5
20260830135904 17 239 0.0 4.8 0.00 0.00 0.00 77 1008.3
20260830135404 17 239 0.0 4.8 0.00 0.00 0.00 77 1008.4
20260830134905 17 239 1.6 4.8 0.00 0.00 0.00 77 1008.5
20260830133405 17 253 0.0 3.2 0.00 0.00 0.00 78 1008.1
20260830132905 16 251 0.0 3.2 0.00 0.00 0.00 78 1008.1
20260830132405 16 118 0.0 1.6 0.00 0.00 0.00 79 1008.0
20260830130404 16 0 0.0 0.0 0.00 0.00 0.00 78 1008.0
20260830125904 16 0 0.0 0.0 0.00 0.00 0.00 78 1007.9
20260830125404 16 0 0.0 0.0 0.00 0.00 0.00 78 1007.8
20260830124905 16 0 0.0 0.0 0.00 0.00 0.00 78 1007.8
20260830124404 16 0 0.0 0.0 0.00 0.00 0.00 78 1007.6
20260830123405 16 0 0.0 0.0 0.00 0.00 0.00 78 1007.4
20260830122904 16 0 0.0 1.6 0.00 0.00 0.00 78 1007.4
20260830122404 16 0 0.0 3.2 0.00 0.00 0.00 77 1007.3
20260830120904 16 0 0.0 0.0 0.00 0.00 0.00 77 1007.4
20260830114404 16 0 1.6 3.2 0.00 0.00 0.00 75 1007.2
20260830113905 16 0 0.0 0.0 0.00 0.00 0.00 75 1007.1
20260830112904 17 0 0.0 3.2 0.00 0.00 0.00 74 1007.1
20260830112405 17 0 1.6 3.2 0.00 0.00 0.00 74 1007.1
20260830111904 17 0 0.0 3.2 0.00 0.00 0.00 74 1007.3
20260830103905 17 0 0.0 4.8 0.00 0.00 0.00 71 1007.3
20260830103404 17 0 1.6 4.8 0.00 0.00 0.00 70 1007.1
20260830102405 17 0 0.0 3.2 0.00 0.00 0.00 67 1006.8